Kbely Air Base

Jump to: basic info | weather | frequencies | runways | comments

Related pages: nearby airports | nearby navaids | notams | map

Basic information (top)

Codes: LKKB
Location: lon 50.121399, lat 14.543600, elev 939 ft / 286 m msl
Status: medium_airport

Weather (top)

Current conditions (rec'd 2014/09/21 21:00Z):

LKKB 212100Z 34008KT 310V020 9999 -RA FEW008 BKN050 OVC070 12/11 Q1011 NOSIG

Airport forecast (rec'd 2014/09/17 18:00Z):

TAF COR LKKB 171700Z 1718/1818 12014KT CAVOK 
      TEMPO 1718/1719 SCT045 
      BECMG 1800/1802 VRB02KT 3000 
      TEMPO 1802/1807 0500 FG BKN002 
      BECMG 1808/1810 11008KT CAVOK 
      TEMPO 1810/1815 SCT030

Frequencies (top)

Verify before use: may be inaccurate or out of date.

APP: 124.675 MHz (APP)
GCA: 123.3 MHz (PRECISION)
TWR: 120.875 MHz (TWR)

Runways (top)

06/24: 6,562 x 148 ft (2,000 x 45 m) — paved — lighted

Latest comments (top)

No comments yet for Kbely Air Base

More... (top)

See also NOTAMs and nearby airports and navaids, or visit the Kbely Air Base page at the main OurAirports website..